Weather History for Stigler, OK

Change the Weather History Date:

Wednesday, April 10, 2013

  Actual Average (KJSV) Record (KJSV)
Temperature  
Mean Temperature 57 °F -  
Max Temperature 77 °F 71 °F 85 °F (1992)
Min Temperature 37 °F 46 °F 30 °F (2003)
Degree Days  
Heating Degree Days 8    
Growing Degree Days 7 (Base 50)    
Moisture  
Dew Point 40 °F    
Average Humidity 86    
Maximum Humidity 93    
Minimum Humidity 61    
Precipitation  
Precipitation 0.80 in - - ()
Sea Level Pressure  
Sea Level Pressure 29.88 in    
Wind  
Wind Speed 13 mph (NW)    
Max Wind Speed 17 mph    
Max Gust Speed 28 mph    
Visibility 8 miles    
Events Rain , Thunderstorm    
Averages and records for this station are not official NWS values.
T = Trace of Precipitation, MM = Missing Value Source: NWS Daily Summary

Daily Weather History Graph

Daily Weather History Graph

Search for Another Location

Airport:

Trip Planner

Search our weather history database for the weather conditions in past years. The results will help you decide how hot, cold, wet, or windy it might be!

Date:

Astronomy

Apr. 10, 2013 Rise Set
Actual Time 6:54 AM CDT 7:49 PM CDT
Civil Twilight 6:28 AM CDT 8:15 PM CDT
Nautical Twilight 5:57 AM CDT 8:46 PM CDT
Astronomical Twilight 5:26 AM CDT 9:17 PM CDT
Moon 6:52 AM CDT (4/10) 8:23 PM CDT (4/10)
Length of Visible Light 13h 46m
Length of Day
12h 55m
New Moon, 0% of the Moon is Illuminated
Apr 10
New Moon
Apr 18
First Quarter
Apr 25
Full
May 2
Last Quarter
May 9
New

Hourly Weather History & Observations

Time (CDT) Temp. Windchill Dew Point Humidity Pressure Visibility Wind Dir Wind Speed Gust Speed Precip Events Conditions
12:15 AM 77.0 °F - 62.6 °F 61% 29.75 in 10.0 mi South 15.0 mph 27.6 mph N/A   Overcast
12:35 AM 75.2 °F - 62.6 °F 65% 29.74 in 10.0 mi South 16.1 mph 24.2 mph N/A   Overcast
12:55 AM 75.2 °F - 62.6 °F 65% 29.73 in 10.0 mi South 13.8 mph 23.0 mph N/A   Overcast
1:15 AM 75.2 °F - 62.6 °F 65% 29.74 in 9.0 mi South 13.8 mph 20.7 mph N/A   Overcast
1:35 AM 75.2 °F - 62.6 °F 65% 29.74 in 9.0 mi SSW 10.4 mph 19.6 mph N/A   Overcast
1:55 AM 53.6 °F - 46.4 °F 77% 29.78 in 10.0 mi NW 16.1 mph 25.3 mph N/A   Overcast
2:15 AM 51.8 °F - 44.6 °F 76% 29.78 in 10.0 mi NW 16.1 mph 21.9 mph N/A   Overcast
2:35 AM 50.0 °F - 42.8 °F 76% 29.80 in 10.0 mi NW 17.3 mph 26.5 mph N/A   Overcast
2:55 AM 50.0 °F - 44.6 °F 82% 29.82 in 7.0 mi NW 17.3 mph 24.2 mph N/A   Overcast
3:15 AM 48.2 °F - 44.6 °F 87% 29.83 in 10.0 mi NW 11.5 mph 20.7 mph 0.01 in   Overcast
3:35 AM 48.2 °F - 42.8 °F 82% 29.83 in 10.0 mi NNW 10.4 mph - 0.01 in   Overcast
3:55 AM 48.2 °F - 42.8 °F 82% 29.82 in 8.0 mi NNW 11.5 mph - 0.01 in Rain Light Rain
4:15 AM 46.4 °F 42.4 °F 42.8 °F 87% 29.82 in 8.0 mi WNW 8.1 mph - N/A Rain , Thunderstorm Light Rain
4:35 AM 46.4 °F 41.1 °F 42.8 °F 87% 29.82 in 7.0 mi NW 11.5 mph - 0.01 in Rain , Thunderstorm Light Rain
4:55 AM 46.4 °F 40.7 °F 41.0 °F 81% 29.84 in 5.0 mi NW 12.7 mph 20.7 mph 0.03 in Rain , Thunderstorm Light Rain
5:15 AM 44.6 °F 38.4 °F 41.0 °F 87% 29.85 in 8.0 mi NW 12.7 mph - N/A Thunderstorm Overcast
5:35 AM 44.6 °F 39.7 °F 41.0 °F 87% 29.88 in 9.0 mi WNW 9.2 mph 18.4 mph N/A   Overcast
5:55 AM 44.6 °F 39.7 °F 41.0 °F 87% 29.86 in 9.0 mi NNW 9.2 mph 17.3 mph N/A Rain , Thunderstorm Light Rain
6:15 AM 44.6 °F 40.2 °F 41.0 °F 87% 29.85 in 10.0 mi North 8.1 mph - 0.01 in   Overcast
6:35 AM 44.6 °F 40.2 °F 41.0 °F 87% 29.84 in 10.0 mi North 8.1 mph - 0.01 in Thunderstorm Overcast
6:55 AM 44.6 °F 40.2 °F 41.0 °F 87% 29.86 in 10.0 mi NW 8.1 mph - 0.01 in   Overcast
7:15 AM 44.6 °F 40.2 °F 41.0 °F 87% 29.87 in 10.0 mi WNW 8.1 mph - N/A Thunderstorm Overcast
7:35 AM 44.6 °F 42.2 °F 41.0 °F 87% 29.86 in 10.0 mi WNW 4.6 mph - N/A Thunderstorm Overcast
7:55 AM 44.6 °F 38.8 °F 41.0 °F 87% 29.88 in 10.0 mi WNW 11.5 mph 16.1 mph N/A Thunderstorm Overcast
8:15 AM 44.6 °F 37.8 °F 41.0 °F 87% 29.90 in 7.0 mi NW 15.0 mph 18.4 mph N/A Thunderstorm Overcast
8:35 AM 42.8 °F 35.4 °F 39.2 °F 87% 29.90 in 3.0 mi NW 15.0 mph 21.9 mph N/A Rain , Thunderstorm Light Rain
8:55 AM 41.0 °F 32.5 °F 39.2 °F 93% 29.92 in 7.0 mi NW 17.3 mph 23.0 mph 0.01 in Rain Light Rain
9:15 AM 41.0 °F 34.3 °F 39.2 °F 93% 29.88 in 9.0 mi NNW 11.5 mph 24.2 mph N/A Thunderstorm Overcast
9:35 AM 41.0 °F 33.9 °F 39.2 °F 93% 29.90 in 6.0 mi NW 12.7 mph - 0.03 in Rain , Thunderstorm Light Rain
9:55 AM 41.0 °F 35.2 °F 39.2 °F 93% 29.90 in 9.0 mi NW 9.2 mph - 0.03 in   Overcast
10:15 AM 41.0 °F 34.3 °F 39.2 °F 93% 29.90 in 9.0 mi NW 11.5 mph 17.3 mph N/A Thunderstorm Overcast
10:35 AM 41.0 °F 33.5 °F 39.2 °F 93% 29.91 in 3.0 mi NNW 13.8 mph 19.6 mph 0.04 in Rain , Thunderstorm Light Rain
10:55 AM 41.0 °F 36.4 °F 39.2 °F 93% 29.91 in 6.0 mi NNW 6.9 mph 17.3 mph 0.06 in Thunderstorm Overcast
11:15 AM 41.0 °F 33.9 °F 39.2 °F 93% 29.91 in 9.0 mi NNW 12.7 mph 17.3 mph N/A Thunderstorm Mostly Cloudy
11:35 AM 41.0 °F 34.3 °F 37.4 °F 87% 29.91 in 5.0 mi NNW 11.5 mph 17.3 mph 0.01 in Rain Light Rain
11:55 AM 41.0 °F 34.7 °F 37.4 °F 87% 29.89 in 5.0 mi NNW 10.4 mph - 0.01 in Thunderstorm Overcast
12:15 PM 41.0 °F 33.1 °F 37.4 °F 87% 29.90 in 3.0 mi NNW 15.0 mph - 0.01 in Rain Light Rain
12:35 PM 41.0 °F 33.1 °F 37.4 °F 87% 29.92 in 1.8 mi WNW 15.0 mph 19.6 mph 0.01 in Thunderstorm Overcast
12:55 PM 39.2 °F 30.8 °F 37.4 °F 93% 29.93 in 1.2 mi NW 15.0 mph 20.7 mph 0.02 in Rain , Thunderstorm Light Rain
1:15 PM 39.2 °F 30.2 °F 37.4 °F 93% 29.91 in 3.0 mi WNW 17.3 mph 24.2 mph 0.01 in Thunderstorm Overcast
1:35 PM 37.4 °F 28.5 °F 35.6 °F 93% 29.91 in 1.0 mi NW 15.0 mph - 0.17 in Rain , Thunderstorm Heavy Rain
1:55 PM 39.2 °F 31.6 °F 37.4 °F 93% 29.88 in 4.0 mi NNW 12.7 mph 18.4 mph 0.19 in Rain , Thunderstorm Light Rain
2:15 PM 39.2 °F 30.2 °F 37.4 °F 93% 29.92 in 7.0 mi West 17.3 mph 21.9 mph N/A Thunderstorm Overcast
2:35 PM 37.4 °F 28.9 °F 35.6 °F 93% 29.93 in 2.5 mi WNW 13.8 mph 20.7 mph 0.11 in Rain , Thunderstorm Light Thunderstorms and Rain
2:55 PM 37.4 °F 29.3 °F 35.6 °F 93% 29.88 in 2.0 mi NW 12.7 mph 21.9 mph 0.23 in Rain , Thunderstorm Light Thunderstorms and Rain
3:15 PM 39.2 °F 30.5 °F 37.4 °F 93% 29.99 in 6.0 mi West 16.1 mph 26.5 mph 0.04 in Thunderstorm Unknown
3:35 PM 39.2 °F 30.8 °F 37.4 °F 93% 29.89 in 8.0 mi NW 15.0 mph 20.7 mph 0.17 in Thunderstorm Unknown
3:55 PM 39.2 °F 32.5 °F 35.6 °F 87% 29.87 in 10.0 mi NW 10.4 mph - 0.17 in Thunderstorm Thunderstorm
4:15 PM 39.2 °F 31.6 °F 37.4 °F 93% 29.84 in 10.0 mi NNW 12.7 mph 19.6 mph N/A Thunderstorm Unknown
4:35 PM 39.2 °F 33.6 °F 37.4 °F 93% 29.84 in 10.0 mi NNW 8.1 mph - N/A Thunderstorm Unknown
4:55 PM 39.2 °F 34.2 °F 37.4 °F 93% 29.86 in 8.0 mi NW 6.9 mph 17.3 mph 0.01 in Rain Light Rain
5:15 PM 39.2 °F 33.0 °F 37.4 °F 93% 29.87 in 6.0 mi NW 9.2 mph 20.7 mph 0.01 in Rain Light Rain
5:35 PM 39.2 °F 31.6 °F 35.6 °F 87% 29.89 in 10.0 mi NW 12.7 mph 23.0 mph 0.01 in   Unknown
5:55 PM 39.2 °F 32.5 °F 35.6 °F 87% 29.89 in 10.0 mi NW 10.4 mph 20.7 mph 0.02 in   Unknown
6:15 PM 39.2 °F 31.6 °F 35.6 °F 87% 29.89 in 10.0 mi NW 12.7 mph - N/A   Unknown
6:35 PM 39.2 °F 32.0 °F 35.6 °F 87% 29.89 in 10.0 mi NW 11.5 mph 17.3 mph N/A   Unknown
6:55 PM 39.2 °F 32.5 °F 35.6 °F 87% 29.89 in 10.0 mi NW 10.4 mph - N/A   Unknown
7:15 PM 39.2 °F 32.5 °F 35.6 °F 87% 29.90 in 9.0 mi NW 10.4 mph - N/A   Unknown
7:35 PM 39.2 °F 33.0 °F 35.6 °F 87% 29.92 in 7.0 mi NW 9.2 mph - N/A   Unknown
7:55 PM 39.2 °F 32.0 °F 35.6 °F 87% 29.92 in 10.0 mi NW 11.5 mph 17.3 mph N/A   Unknown
8:15 PM 39.2 °F 33.6 °F 35.6 °F 87% 29.91 in 10.0 mi NW 8.1 mph - N/A   Unknown
8:35 PM 39.2 °F 32.5 °F 35.6 °F 87% 29.92 in 10.0 mi NW 10.4 mph - N/A   Unknown
8:55 PM 39.2 °F 32.0 °F 35.6 °F 87% 29.93 in 10.0 mi NW 11.5 mph - N/A   Unknown
9:15 PM 39.2 °F 31.6 °F 35.6 °F 87% 29.93 in 10.0 mi NW 12.7 mph 20.7 mph N/A   Unknown
9:35 PM 39.2 °F 31.6 °F 35.6 °F 87% 29.94 in 10.0 mi WNW 12.7 mph 20.7 mph N/A   Unknown
9:55 PM 39.2 °F 31.2 °F 33.8 °F 81% 29.95 in 10.0 mi NW 13.8 mph 17.3 mph N/A   Unknown
10:15 PM 39.2 °F 30.8 °F 33.8 °F 81% 29.94 in 10.0 mi NW 15.0 mph 20.7 mph N/A   Unknown
10:35 PM 37.4 °F 28.9 °F 32.0 °F 81% 29.93 in 10.0 mi NW 13.8 mph 23.0 mph N/A   Unknown
10:55 PM 37.4 °F 28.5 °F 32.0 °F 81% 29.95 in 10.0 mi WNW 15.0 mph 21.9 mph N/A   Unknown
11:15 PM 37.4 °F 29.3 °F 32.0 °F 81% 29.95 in 10.0 mi WNW 12.7 mph 20.7 mph N/A   Unknown
11:35 PM 37.4 °F 28.5 °F 32.0 °F 81% 29.96 in 10.0 mi NW 15.0 mph 21.9 mph N/A   Unknown
11:55 PM 37.4 °F 28.9 °F 32.0 °F 81% 29.96 in 10.0 mi NW 13.8 mph 20.7 mph N/A   Unknown